Terminal Aerodrome Forecast
Issued by NWS Wilmington, NC

Home | Current Version | Previous Version | Text Only | Print | Product List | Glossary On
Versions: 1 2 3 4 5 6 7 8 9 10 11 12 13 14 15 16 17 18
000
FTUS42 KILM 282340
TAFMYR
TAF
KMYR 282340Z 2900/2924 21015KT P6SM VCTS SCT040CB BKN100
     FM290100 22004KT P6SM SCT050
     FM290900 30004KT P6SM FEW250
     FM291300 35006KT P6SM FEW050=

USA.gov is the U.S. government's official web portal to all federal, state and local government web resources and services.